Time,TemperatureF,DewpointF,PressureIn,WindDirection,WindDirectionDegrees,WindSpeedMPH,WindSpeedGustMPH,Humidity,HourlyPrecipIn,Conditions,Clouds,dailyrainin,SoftwareType,DateUTC
2013-06-19 00:12:00,54.3,38.0,29.71,WSW,248,4.0,-999.0,54,-99.99,,,0.00,weatherlink.com 1.10,2013-06-19 06:12:00,
2013-06-19 00:27:00,53.3,37.0,29.71,WSW,249,0.0,-999.0,55,-99.99,,,0.00,weatherlink.com 1.10,2013-06-19 06:27:00,
2013-06-19 00:42:00,53.1,37.0,29.71,WSW,253,0.0,-999.0,55,-99.99,,,0.00,weatherlink.com 1.10,2013-06-19 06:42:00,
2013-06-19 00:57:00,53.3,37.0,29.71,WSW,254,1.0,-999.0,54,-99.99,,,0.00,weatherlink.com 1.10,2013-06-19 06:57:00,
2013-06-19 01:12:00,54.7,37.0,29.70,West,261,0.0,-999.0,51,-99.99,,,0.00,weatherlink.com 1.10,2013-06-19 07:12:00,
2013-06-19 01:27:00,57.5,36.0,29.69,WNW,282,1.0,-999.0,45,-99.99,,,0.00,weatherlink.com 1.10,2013-06-19 07:27:00,
2013-06-19 01:42:00,65.8,37.0,29.68,ESE,121,8.0,-999.0,34,-99.99,,,0.00,weatherlink.com 1.10,2013-06-19 07:42:00,
2013-06-19 01:57:00,68.3,36.0,29.67,SE,126,7.0,-999.0,31,-99.99,,,0.00,weatherlink.com 1.10,2013-06-19 07:57:00,
2013-06-19 02:12:00,68.5,36.0,29.67,ESE,123,7.0,-999.0,30,-99.99,,,0.00,weatherlink.com 1.10,2013-06-19 08:12:00,
2013-06-19 02:27:00,68.8,36.0,29.66,ESE,108,10.0,-999.0,30,-99.99,,,0.00,weatherlink.com 1.10,2013-06-19 08:27:00,
2013-06-19 02:42:00,69.0,35.0,29.64,SE,130,15.0,-999.0,29,-99.99,,,0.00,weatherlink.com 1.10,2013-06-19 08:42:00,
2013-06-19 02:57:00,69.1,35.0,29.64,SE,133,18.0,-999.0,28,-99.99,,,0.00,weatherlink.com 1.10,2013-06-19 08:57:00,
2013-06-19 03:12:00,69.1,35.0,29.63,ESE,118,15.0,-999.0,29,-99.99,,,0.00,weatherlink.com 1.10,2013-06-19 09:12:00,
2013-06-19 03:27:00,68.9,34.0,29.62,ESE,115,13.0,-999.0,28,-99.99,,,0.00,weatherlink.com 1.10,2013-06-19 09:27:00,
2013-06-19 03:42:00,69.1,35.0,29.61,ESE,107,15.0,-999.0,28,-99.99,,,0.00,weatherlink.com 1.10,2013-06-19 09:42:00,
2013-06-19 03:57:00,68.8,35.0,29.60,SE,132,12.0,-999.0,29,-99.99,,,0.00,weatherlink.com 1.10,2013-06-19 09:57:00,
2013-06-19 04:12:00,68.8,34.0,29.61,ESE,116,13.0,-999.0,28,-99.99,,,0.00,weatherlink.com 1.10,2013-06-19 10:12:00,
2013-06-19 04:27:00,68.8,35.0,29.60,ESE,110,11.0,-999.0,29,-99.99,,,0.00,weatherlink.com 1.10,2013-06-19 10:27:00,
2013-06-19 04:42:00,68.3,35.0,29.60,SE,132,13.0,-999.0,29,-99.99,,,0.00,weatherlink.com 1.10,2013-06-19 10:42:00,
2013-06-19 04:57:00,68.2,35.0,29.61,SSE,156,12.0,-999.0,29,-99.99,,,0.00,weatherlink.com 1.10,2013-06-19 10:57:00,
2013-06-19 05:12:00,65.0,36.0,29.63,SSW,212,5.0,-999.0,34,-99.99,,,0.00,weatherlink.com 1.10,2013-06-19 11:12:00,
2013-06-19 05:27:00,62.9,35.0,29.63,SSW,213,6.0,-999.0,36,-99.99,,,0.00,weatherlink.com 1.10,2013-06-19 11:27:00,
2013-06-19 05:42:00,61.2,35.0,29.63,SW,218,3.0,-999.0,37,-99.99,,,0.00,weatherlink.com 1.10,2013-06-19 11:42:00,
2013-06-19 05:57:00,59.0,35.0,29.64,SSW,196,4.0,-999.0,40,-99.99,,,0.00,weatherlink.com 1.10,2013-06-19 11:57:00,
2013-06-19 06:12:00,56.4,35.0,29.64,South,182,2.0,-999.0,44,-99.99,,,0.00,weatherlink.com 1.10,2013-06-19 12:12:00,
2013-06-19 06:27:00,54.6,35.0,29.64,SSW,196,6.0,-999.0,47,-99.99,,,0.00,weatherlink.com 1.10,2013-06-19 12:27:00,
2013-06-19 06:42:00,55.4,34.0,29.64,SSW,202,9.0,-999.0,45,-99.99,,,0.00,weatherlink.com 1.10,2013-06-19 12:42:00,
2013-06-19 06:57:00,55.0,37.0,29.65,WSW,242,3.0,-999.0,52,-99.99,,,0.00,weatherlink.com 1.10,2013-06-19 12:57:00,
2013-06-19 07:12:00,51.0,40.0,29.66,West,277,1.0,-999.0,67,-99.99,,,0.00,weatherlink.com 1.10,2013-06-19 13:12:00,
2013-06-19 07:27:00,50.8,41.0,29.67,WNW,293,2.0,-999.0,69,-99.99,,,0.00,weatherlink.com 1.10,2013-06-19 13:27:00,
2013-06-19 07:42:00,52.7,41.0,29.68,NNW,335,0.0,-999.0,65,-99.99,,,0.00,weatherlink.com 1.10,2013-06-19 13:42:00,
2013-06-19 07:57:00,54.8,42.0,29.68,NNW,336,0.0,-999.0,63,-99.99,,,0.00,weatherlink.com 1.10,2013-06-19 13:57:00,
2013-06-19 08:12:00,56.3,42.0,29.68,NNW,342,1.0,-999.0,60,-99.99,,,0.00,weatherlink.com 1.10,2013-06-19 14:12:00,
2013-06-19 08:27:00,58.2,41.0,29.68,SE,124,2.0,-999.0,54,-99.99,,,0.00,weatherlink.com 1.10,2013-06-19 14:27:00,
2013-06-19 08:42:00,60.0,40.0,29.67,South,190,4.0,-999.0,48,-99.99,,,0.00,weatherlink.com 1.10,2013-06-19 14:42:00,
2013-06-19 08:57:00,60.9,40.0,29.67,SSW,211,1.0,-999.0,47,-99.99,,,0.00,weatherlink.com 1.10,2013-06-19 14:57:00,
2013-06-19 09:12:00,62.2,39.0,29.67,SSE,147,2.0,-999.0,43,-99.99,,,0.00,weatherlink.com 1.10,2013-06-19 15:12:00,
2013-06-19 09:27:00,63.0,41.0,29.67,South,186,2.0,-999.0,45,-99.99,,,0.00,weatherlink.com 1.10,2013-06-19 15:27:00,
2013-06-19 09:42:00,63.8,39.0,29.67,SSW,204,7.0,-999.0,41,-99.99,,,0.00,weatherlink.com 1.10,2013-06-19 15:42:00,
2013-06-19 09:57:00,64.3,39.0,29.66,SSW,207,5.0,-999.0,39,-99.99,,,0.00,weatherlink.com 1.10,2013-06-19 15:57:00,
2013-06-19 10:12:00,65.3,40.0,29.66,SW,229,7.0,-999.0,40,-99.99,,,0.00,weatherlink.com 1.10,2013-06-19 16:12:00,
2013-06-19 10:27:00,65.5,39.0,29.66,WSW,243,6.0,-999.0,38,-99.99,,,0.00,weatherlink.com 1.10,2013-06-19 16:27:00,
2013-06-19 10:42:00,66.0,39.0,29.66,WSW,254,11.0,-999.0,37,-99.99,,,0.00,weatherlink.com 1.10,2013-06-19 16:42:00,
2013-06-19 10:57:00,66.8,40.0,29.65,SSW,207,6.0,-999.0,38,-99.99,,,0.00,weatherlink.com 1.10,2013-06-19 16:57:00,
2013-06-19 11:12:00,67.0,39.0,29.66,West,264,3.0,-999.0,36,-99.99,,,0.00,weatherlink.com 1.10,2013-06-19 17:12:00,
2013-06-19 11:27:00,67.7,41.0,29.65,West,259,5.0,-999.0,38,-99.99,,,0.00,weatherlink.com 1.10,2013-06-19 17:27:00,
2013-06-19 11:42:00,68.2,41.0,29.65,SW,232,6.0,-999.0,38,-99.99,,,0.00,weatherlink.com 1.10,2013-06-19 17:42:00,
2013-06-19 11:57:00,68.5,42.0,29.64,WSW,250,6.0,-999.0,38,-99.99,,,0.00,weatherlink.com 1.10,2013-06-19 17:57:00,
2013-06-19 12:12:00,69.3,41.0,29.65,WNW,283,2.0,-999.0,36,-99.99,,,0.00,weatherlink.com 1.10,2013-06-19 18:12:00,
2013-06-19 12:27:00,69.2,40.0,29.65,West,274,9.0,-999.0,35,-99.99,,,0.00,weatherlink.com 1.10,2013-06-19 18:27:00,
2013-06-19 12:42:00,69.7,42.0,29.64,WSW,251,5.0,-999.0,37,-99.99,,,0.00,weatherlink.com 1.10,2013-06-19 18:42:00,
2013-06-19 12:57:00,69.7,41.0,29.64,SW,222,4.0,-999.0,35,-99.99,,,0.00,weatherlink.com 1.10,2013-06-19 18:57:00,
2013-06-19 13:12:00,70.0,41.0,29.64,WNW,289,4.0,-999.0,35,-99.99,,,0.00,weatherlink.com 1.10,2013-06-19 19:12:00,
2013-06-19 13:27:00,69.6,41.0,29.64,SW,226,7.0,-999.0,36,-99.99,,,0.00,weatherlink.com 1.10,2013-06-19 19:27:00,
2013-06-19 13:42:00,69.0,41.0,29.64,WSW,257,9.0,-999.0,36,-99.99,,,0.00,weatherlink.com 1.10,2013-06-19 19:42:00,
2013-06-19 13:57:00,68.3,42.0,29.66,WSW,241,9.0,-999.0,39,-99.99,,,0.00,weatherlink.com 1.10,2013-06-19 19:57:00,
2013-06-19 14:12:00,68.4,41.0,29.66,SSW,207,1.0,-999.0,37,-99.99,,,0.00,weatherlink.com 1.10,2013-06-19 20:12:00,
2013-06-19 14:27:00,69.1,42.0,29.67,SSW,196,7.0,-999.0,38,-99.99,,,0.00,weatherlink.com 1.10,2013-06-19 20:27:00,
2013-06-19 14:42:00,65.9,42.0,29.68,WSW,242,17.0,-999.0,42,-99.99,,,0.00,weatherlink.com 1.10,2013-06-19 20:42:00,
2013-06-19 14:57:00,61.2,40.0,29.72,WSW,239,15.0,-999.0,46,-99.99,,,0.00,weatherlink.com 1.10,2013-06-19 20:57:00,
2013-06-19 15:12:00,53.0,41.0,29.75,SW,229,13.0,-999.0,63,-99.99,,,0.00,weatherlink.com 1.10,2013-06-19 21:12:00,
2013-06-19 15:27:00,57.0,40.0,29.77,South,190,15.0,-999.0,53,-99.99,,,0.00,weatherlink.com 1.10,2013-06-19 21:27:00,
2013-06-19 15:42:00,56.7,39.0,29.81,SSW,198,12.0,-999.0,51,-99.99,,,0.00,weatherlink.com 1.10,2013-06-19 21:42:00,
2013-06-19 15:57:00,58.0,40.0,29.81,SW,233,13.0,-999.0,51,-99.99,,,0.00,weatherlink.com 1.10,2013-06-19 21:57:00,
2013-06-19 16:12:00,57.3,40.0,29.83,SW,227,6.0,-999.0,52,-99.99,,,0.00,weatherlink.com 1.10,2013-06-19 22:12:00,
2013-06-19 16:27:00,58.7,39.0,29.84,SW,230,4.0,-999.0,48,-99.99,,,0.00,weatherlink.com 1.10,2013-06-19 22:27:00,
2013-06-19 16:42:00,58.4,39.0,29.85,WSW,248,1.0,-999.0,48,-99.99,,,0.00,weatherlink.com 1.10,2013-06-19 22:42:00,
2013-06-19 16:57:00,55.9,39.0,29.88,SW,235,9.0,-999.0,53,-99.99,,,0.00,weatherlink.com 1.10,2013-06-19 22:57:00,
2013-06-19 17:12:00,53.7,37.0,29.90,SW,215,9.0,-999.0,54,-99.99,,,0.00,weatherlink.com 1.10,2013-06-19 23:12:00,
2013-06-19 17:27:00,53.1,38.0,29.90,SSW,205,0.0,-999.0,57,-99.99,,,0.00,weatherlink.com 1.10,2013-06-19 23:27:00,
2013-06-19 17:42:00,54.1,38.0,29.90,South,184,3.0,-999.0,55,-99.99,,,0.00,weatherlink.com 1.10,2013-06-19 23:42:00,
2013-06-19 17:57:00,55.6,37.0,29.90,ENE,69,1.0,-999.0,50,-99.99,,,0.00,weatherlink.com 1.10,2013-06-19 23:57:00,
2013-06-19 18:12:00,54.2,36.0,29.92,SW,216,3.0,-999.0,51,-99.99,,,0.00,weatherlink.com 1.10,2013-06-20 00:12:00,
2013-06-19 18:27:00,53.5,38.0,29.92,WSW,240,13.0,-999.0,57,-99.99,,,0.00,weatherlink.com 1.10,2013-06-20 00:27:00,
2013-06-19 18:42:00,49.7,37.0,29.94,SW,235,10.0,-999.0,62,-99.99,,,0.00,weatherlink.com 1.10,2013-06-20 00:42:00,
2013-06-19 18:57:00,48.6,37.0,29.95,WSW,237,9.0,-999.0,65,-99.99,,,0.00,weatherlink.com 1.10,2013-06-20 00:57:00,
2013-06-19 19:29:00,47.3,40.0,29.97,South,181,6.0,-999.0,77,-99.99,,,0.00,weatherlink.com 1.10,2013-06-20 01:29:00,
2013-06-19 19:42:00,48.3,39.0,29.98,SSW,192,6.0,-999.0,70,-99.99,,,0.00,weatherlink.com 1.10,2013-06-20 01:42:00,
2013-06-19 19:57:00,48.6,38.0,29.99,SSW,192,6.0,-999.0,68,-99.99,,,0.00,weatherlink.com 1.10,2013-06-20 01:57:00,
2013-06-19 20:12:00,48.9,35.0,29.99,SSW,195,6.0,-999.0,59,-99.99,,,0.00,weatherlink.com 1.10,2013-06-20 02:12:00,
2013-06-19 20:27:00,48.8,35.0,30.00,SSW,209,3.0,-999.0,60,-99.99,,,0.00,weatherlink.com 1.10,2013-06-20 02:27:00,
2013-06-19 20:42:00,47.8,34.0,30.00,SW,214,3.0,-999.0,60,-99.99,,,0.00,weatherlink.com 1.10,2013-06-20 02:42:00,
2013-06-19 20:57:00,46.7,34.0,30.01,SW,214,2.0,-999.0,61,-99.99,,,0.00,weatherlink.com 1.10,2013-06-20 02:57:00,
2013-06-19 21:12:00,47.2,33.0,30.01,SSW,209,4.0,-999.0,58,-99.99,,,0.00,weatherlink.com 1.10,2013-06-20 03:12:00,
2013-06-19 21:27:00,47.6,33.0,30.02,South,190,5.0,-999.0,58,-99.99,,,0.00,weatherlink.com 1.10,2013-06-20 03:27:00,
2013-06-19 21:42:00,47.5,32.0,30.03,SSW,210,11.0,-999.0,56,-99.99,,,0.00,weatherlink.com 1.10,2013-06-20 03:42:00,
2013-06-19 21:57:00,47.0,31.0,30.04,SW,221,6.0,-999.0,55,-99.99,,,0.00,weatherlink.com 1.10,2013-06-20 03:57:00,
2013-06-19 22:12:00,46.1,32.0,30.04,SW,236,7.0,-999.0,58,-99.99,,,0.00,weatherlink.com 1.10,2013-06-20 04:12:00,
2013-06-19 22:27:00,46.2,31.0,30.04,WSW,241,5.0,-999.0,56,-99.99,,,0.00,weatherlink.com 1.10,2013-06-20 04:27:00,
2013-06-19 22:42:00,46.0,31.0,30.05,SW,221,4.0,-999.0,57,-99.99,,,0.00,weatherlink.com 1.10,2013-06-20 04:42:00,
2013-06-19 22:57:00,45.9,33.0,30.05,SSW,207,4.0,-999.0,60,-99.99,,,0.00,weatherlink.com 1.10,2013-06-20 04:57:00,
2013-06-19 23:12:00,45.5,33.0,30.06,SSW,197,4.0,-999.0,61,-99.99,,,0.00,weatherlink.com 1.10,2013-06-20 05:12:00,
2013-06-19 23:27:00,44.9,32.0,30.07,SSW,196,3.0,-999.0,60,-99.99,,,0.00,weatherlink.com 1.10,2013-06-20 05:27:00,
2013-06-19 23:42:00,44.6,32.0,30.07,SSW,194,5.0,-999.0,61,-99.99,,,0.00,weatherlink.com 1.10,2013-06-20 05:42:00,